Regional Weather Roundup
Issued by NWS Upton, NY

Current Version | Previous Version | Text Only | Print | Product List | Glossary On
Versions: 1 2 3 4 5 6 7 8 9 10 11 12 13 14 15 16 17 18 19 20 21 22 23 24 25 26 27
000 ASUS41 KOKX 271106 RWROKX Regional Weather Roundup National Weather Service New York NY 700 AM EDT SUN MAY 27 2018 Note: "FAIR" indicates few or no clouds below 12,000 feet with no significant weather and/or obstructions to visibility. NYZ071-072-176-178-NJZ106-104-271200- New York City Metro Area CITY SKY/WX TMP DP RH WIND PRES REMARKS Central Park LGT RAIN 65 61 87 E7 30.01R Bronx Bot Gard N/A 63 59 88 N3 30.02R Bronx Lehman C N/A 64 61 88 E15G26 N/A LaGuardia Arpt LGT RAIN 67 61 81 E10 29.99R Queens College N/A 64 61 88 NE8 N/A Kennedy Intl LGT RAIN 61 61 100 E10 29.98R FOG Breezy Point N/A 59 N/A N/A E13G18 N/A Brooklyn Coll N/A 61 59 94 E7 N/A Staten Island N/A 61 61 100 E5 N/A Newark/Liberty RAIN 66 63 90 E6 29.99R FOG Teterboro RAIN 66 62 87 VRB7 29.98R FOG $$ NYZ177-179-078>081-271200- Long Island New York CITY SKY/WX TMP DP RH WIND PRES REMARKS Jones Beach N/A 57 N/A N/A E18G24 N/A Wantagh N/A N/A N/A N/A E8 N/A Hempstead N/A 64 61 88 E3 30.01R Matinecock Pt N/A 63 N/A N/A E22 N/A Farmingdale RAIN 63 61 93 E8 29.98R FOG MacArthur/ISP LGT RAIN 62 60 93 E6 30.00R Stony Brook N/A 61 59 94 E2 N/A Shirley LGT RAIN 62 61 96 VRB3 30.00R FOG Mt Sinai Harb N/A 61 N/A N/A E10G17 N/A Westhampton CLOUDY 60 56 86 NE13G18 30.01R East Hampton CLOUDY 56 55 96 E12G17 30.01R FOG Southold N/A 57 57 100 E20 N/A Montauk N/A 56 56 100 NE12G21 30.02R $$ NYZ052-065-067-271200- Hudson Valley CITY SKY/WX TMP DP RH WIND PRES REMARKS White Plains LGT RAIN 62 59 90 SE10 30.01R FOG Larchmont Harb N/A 61 N/A N/A NE20 N/A Croton On Huds N/A 68 N/A N/A SE3 N/A Somers N/A 66 59 77 E10 N/A Brewster N/A 66 59 77 E7 N/A Newburgh PTSUNNY 68 63 83 E9 30.00R Montgomery PTSUNNY 68 60 75 NE6 29.99R Otisville N/A 66 61 82 E6 N/A Warwick N/A 68 63 83 E7 N/A Suffern N/A 64 63 94 SE1 N/A Poughkeepsie PTSUNNY 69 59 70 E9 29.98R Albany CLOUDY 66 61 84 CALM 30.01R $$ NJZ001-105-106-008-010-013-015-019>022-104-271200- New Jersey CITY SKY/WX TMP DP RH WIND PRES REMARKS Newark/Liberty RAIN 66 63 90 E6 29.99R FOG Teterboro RAIN 66 62 87 VRB7 29.98R FOG Caldwell RAIN 64 63 96 VRB7 30.01 FOG Somerville HVY RAIN 65 65 100 NE8 29.94R FOG Linden HVY RAIN 63 60 90 CALM 29.99R Perth Amboy N/A 61 N/A N/A E12 N/A Sussex CLOUDY 69 62 78 E7 29.99R Andover N/A 67 63 87 VRB3 29.99R Trenton RAIN 66 65 96 NE16 29.92R FOG Millville PTSUNNY 73 70 90 VRB5 29.91R Atlantic City CLOUDY 74 72 93 S7 29.91 Wrightstown CLOUDY 70 67 91 E12 29.90 Toms River HVY RAIN 67 67 100 NE6 29.94 FOG Belmar HVY RAIN 60 59 96 NE13 29.96R FOG $$ PAZ047>061-062-071-271200- Eastern Pennsylvania CITY SKY/WX TMP DP RH WIND PRES REMARKS Philadelphia CLOUDY 73 69 87 S5 29.91 Allentown CLOUDY 72 63 73 E15 29.93R Scranton PTSUNNY 66 64 93 NE6 29.95R $$ CTZ002-004>006-009-010-012-RIZ004-006-007-MAZ004-011-015-271200- Southern New England In CT CITY SKY/WX TMP DP RH WIND PRES REMARKS Bradley Intl CLOUDY 66 60 81 NE14 30.05R Hartford CLOUDY 67 60 78 E8 30.03R Danbury PTSUNNY 66 60 81 E13G22 30.02R Wtrbury/Oxford CLOUDY 65 59 81 NE15G23 30.02R Norwalk Harbor N/A 59 N/A N/A E22 N/A Bridgeport CLOUDY 61 57 87 E18 30.01R Meriden CLOUDY 67 59 75 NE9G17 30.02R New Haven CLOUDY 61 57 87 E12 30.02R Chester PTSUNNY 66 61 82 NE7G14 30.02R Groton CLOUDY 61 58 90 E12 30.02R Willimantic CLOUDY 64 58 80 NE13G22 30.05R In RI CITY SKY/WX TMP DP RH WIND PRES REMARKS Providence CLOUDY 60 56 86 NE13 30.09R Block Island CLOUDY 55 55 100 E14G21 30.04R FOG Westerly CLOUDY 63 59 87 E10 30.03S In MA CITY SKY/WX TMP DP RH WIND PRES REMARKS Boston LGT RAIN 55 51 86 NE17 30.15 Worcester FOG 53 53 100 NE13G20 30.11R VSB 1/2 Westfield CLOUDY 61 58 90 NE14G21 30.07R Provincetown CLOUDY 53 50 89 E18 30.12R Nantucket CLOUDY 53 53 100 E17G24 30.05R FOG $$ ANZ330-335-338-340-345-350-353-355-271200- Coastal Marine Observations STATION/POSITION TIME SKY/WX TEMP WIND PRES VSBY WAVE AIR SEA DIR/SP/G HT/PER (UTC) (F) (DEG/KT/KT) (MB) (MI) (FT/S) NY Harb Entrance 1050 59 61 60/ 19/ 25 1013.9 3/ 3 20 S Fire Island 1050 58 55 20/ 12/ 12 1013.7 3/ 6 23 SSW Montauk P 1050 55 55 50/ 16/ 17 1015.2 3/ 5 15 E Barnegat Li 1030 61 N/A 3/ 5 Hudson Canyon 1050 59 57 110/ 6/ 6 1013.3 3/ 5 Kings Point 1042 65 58 100/ 3/ 9 1016.5 Execution Rocks NOT AVBL Western LI Sound 1020 63 90/ 16/ 25 N/A 1/ 3 Central LI Sound 1045 59 100/ 21/ 27 N/A 2 Robbins Reef 1042 64 100/ 4/ 8 1015.7 $$ >>>>>>>>>>>>>>>>>>>>>>>>>>>> KEY <<<<<<<<<<<<<<<<<<<<<<<<<<< > < > SKY/WX - Sky Condition/Present Weather < > TMP - Temperature in Fahrenheit < > DP - Dew Point in Fahrenheit < > RH - Relative Humidity in Percent < > WIND - Direction (from) and Speed in MPH < > PRES - Mean Sea Level Pressure (inches of Hg) < > WCI - Wind Chill Index < > VSB - Visibility in Miles < > HX - Heat Index < > TC - Temperature in Celsius < > VRB - Varibale Wind Direction < > < >>>>>>>>>>>>>>>>>>>>>>>>>>>> KEY <<<<<<<<<<<<<<<<<<<<<<<<<<<

USA.gov is the U.S. government's official web portal to all federal, state and local government web resources and services.